Vorticity
nan nan nan nan nan nan nan nan nan nan nan nan nan nan nan nan nan nan nan nan nan nan nan nan nan nan nan nan nan nan nan nan nan nan nan nan nan nan nan nan nan nan nan
nan 9 6 5 5 4 4 4 5 5 6 6 6 6 5 5 4 5 5 5 4 5 6 7 6 5 8 12 13 9 5 4 3 4 3 -1 1 4 4 6 6 7 nan
nan 7 6 7 6 5 4 4 5 5 6 5 5 5 5 5 5 5 5 4 5 5 6 6 5 7 8 11 17 12 5 3 5 5 2 1 -1 3 5 5 6 6 nan
nan 7 7 7 6 6 4 6 6 5 4 4 5 5 5 5 5 5 4 5 5 5 5 4 4 5 5 6 8 7 6 6 6 5 4 6 2 2 5 4 4 5 nan
nan 7 7 6 5 6 5 5 6 6 5 5 5 5 5 5 5 4 4 5 4 4 4 3 4 4 4 7 6 6 6 5 4 3 7 8 3 2 4 6 5 4 nan
nan 8 8 7 5 5 6 5 6 6 6 5 4 5 5 5 4 3 4 4 4 3 3 4 3 4 6 9 9 6 5 4 2 5 6 7 5 4 5 6 6 6 nan
nan 8 10 8 6 6 6 6 4 5 6 5 5 5 5 5 4 3 4 4 3 2 1 1 3 5 6 9 11 5 3 5 4 6 6 5 6 3 5 6 6 5 nan
nan 11 12 10 5 3 4 4 4 6 6 6 5 5 5 4 3 4 4 4 4 4 3 3 3 4 5 5 7 8 6 5 6 5 6 5 7 4 5 6 6 6 nan
nan 7 5 7 12 3 0 5 6 7 6 5 5 5 5 5 5 4 4 4 4 4 4 5 7 8 6 5 6 6 8 7 5 5 5 5 4 5 6 6 6 6 nan
nan 9 8 7 3 2 6 5 5 5 6 7 6 6 5 3 4 4 5 5 5 5 7 6 6 7 7 8 8 6 6 5 6 5 6 7 5 6 6 6 5 5 nan
nan 6 5 4 5 7 7 9 7 5 4 4 4 3 3 7 5 6 5 5 5 6 7 9 7 6 5 2 3 8 7 6 6 7 5 6 7 7 6 5 5 5 nan
nan 4 1 5 5 8 6 4 6 7 4 5 6 5 6 7 5 5 4 3 4 7 3 3 3 4 7 5 2 5 7 8 7 7 5 6 7 7 6 6 5 4 nan
nan 4 5 3 8 6 6 6 6 5 7 9 7 6 6 5 7 7 5 4 5 4 4 2 3 4 6 8 8 6 7 7 7 6 5 7 6 7 7 5 4 5 nan
nan 2 4 7 7 5 7 8 8 7 7 8 7 6 5 7 7 7 8 8 7 5 7 6 6 6 6 7 8 7 8 8 8 6 5 5 7 9 9 6 4 5 nan
nan 5 9 8 6 7 6 6 8 8 8 8 8 8 8 7 8 8 7 7 8 8 6 7 7 7 6 6 7 7 6 7 9 9 4 6 10 12 12 7 5 5 nan
nan 8 10 7 6 8 6 8 7 8 8 8 8 9 9 9 8 8 7 7 7 7 8 8 7 7 7 6 7 6 7 7 7 9 9 7 11 16 12 7 6 9 nan
nan 9 9 8 8 8 8 7 8 8 7 7 8 8 9 8 8 7 7 7 7 8 8 7 6 6 7 7 6 7 6 8 8 8 10 10 8 6 7 8 10 10 nan
nan 11 8 9 8 7 9 8 9 9 8 8 9 9 9 8 7 7 8 8 7 7 6 7 7 6 7 7 6 6 7 8 8 8 9 9 8 4 1 4 9 9 nan
nan 9 9 8 8 7 7 8 8 8 8 8 8 9 8 7 8 8 8 8 8 6 8 7 7 8 6 7 7 5 9 9 7 6 6 7 7 8 5 4 6 8 nan
nan 9 8 8 7 6 6 6 7 8 8 8 8 9 8 7 8 7 8 8 7 8 7 8 7 8 8 6 7 7 9 10 5 6 6 6 6 7 8 8 7 5 nan
nan 10 8 6 6 5 5 6 7 8 6 8 10 10 7 7 7 7 8 8 7 8 9 6 7 7 7 8 8 9 10 8 6 6 7 6 6 7 7 7 7 7 nan
nan 5 6 7 6 3 5 8 9 8 8 9 9 9 8 8 7 7 7 7 7 7 7 8 8 8 7 8 9 8 6 7 9 9 7 7 7 6 6 6 7 8 nan
nan 7 7 7 5 4 5 4 7 7 9 9 9 9 10 8 7 8 8 8 7 7 9 7 8 8 8 8 9 6 7 10 6 8 10 7 7 8 7 7 7 8 nan
nan 5 8 8 7 7 6 5 6 7 8 8 9 9 11 9 9 8 8 9 9 8 9 9 8 8 8 7 8 9 9 11 6 6 9 8 8 7 8 9 8 7 nan
nan 8 8 8 7 8 6 6 6 8 7 10 11 10 7 8 10 12 10 9 7 9 9 9 8 8 8 9 8 7 8 9 10 8 6 7 7 9 9 9 10 8 nan
nan nan nan nan nan nan nan nan nan nan nan nan nan nan nan nan nan nan nan nan nan nan nan nan nan nan nan nan nan nan nan nan nan nan nan nan nan nan nan nan nan nan nan
CAPE
723 1026 1072 1152 984 861 826 823 820 821 831 805 720 545 340 243 134 52 16 0 0 0 0 0 0 0 0 0 0 0 300 434 462 403 385 245 148 158 134 128 117 106 467
907 968 1004 1052 995 925 963 913 928 945 834 376 350 344 279 164 73 39 74 59 5 0 0 0 0 0 0 0 0 0 84 508 498 518 289 182 99 109 85 4 203 0 1
1032 1026 1054 971 1039 988 999 979 1031 972 542 267 182 224 208 116 103 121 120 106 36 0 0 0 0 0 39 295 467 135 248 544 381 363 109 0 0 0 19 2 31 1 1
1168 1038 981 953 969 1008 975 1009 1040 942 500 301 199 157 118 69 48 53 79 122 48 0 0 0 0 0 0 64 286 492 350 36 18 0 0 0 0 19 0 0 0 0 0
1076 895 994 809 881 1016 1059 1020 1041 923 610 340 250 184 74 68 43 74 188 119 75 0 0 0 0 0 0 0 0 3 0 0 0 0 0 0 0 26 33 47 36 36 25
1059 993 652 613 831 978 1130 1113 944 744 454 325 251 223 128 61 80 121 201 154 91 0 0 0 0 0 0 0 0 0 0 0 0 0 0 1 0 22 0 1 22 30 47
936 780 395 454 700 989 1112 1045 778 596 413 349 287 243 257 211 181 245 239 193 115 33 0 0 0 0 0 0 0 0 0 0 0 0 0 0 0 0 0 0 0 1 28
156 199 284 398 358 527 678 679 529 452 400 348 284 278 310 286 267 256 258 232 204 113 52 0 0 3 0 0 0 0 0 0 0 0 0 0 0 0 1 0 0 0 0
18 14 59 115 128 206 370 493 431 375 365 338 312 281 252 201 203 229 240 237 191 143 97 19 0 1 0 0 0 0 0 0 0 0 0 0 21 0 0 0 0 0 0
44 49 43 49 165 263 337 384 335 300 283 255 239 202 145 147 178 196 199 200 175 121 31 9 0 0 6 0 0 0 0 0 0 0 0 0 22 0 0 0 0 0 0
23 4 6 156 221 176 287 323 259 235 188 149 123 76 24 13 4 0 45 75 91 44 61 41 1 0 0 0 0 0 0 0 0 0 0 0 0 0 0 0 0 0 0
20 27 29 123 110 250 260 211 104 101 54 28 14 2 0 0 0 1 21 43 29 12 9 0 0 0 0 0 0 0 0 0 0 0 0 0 0 0 0 0 0 0 0
8 110 183 175 169 202 176 97 68 23 7 1 0 0 0 0 1 0 0 0 0 0 0 0 0 0 0 0 0 0 0 0 0 0 0 0 0 0 0 0 0 0 0
42 72 121 248 224 117 34 32 21 0 0 0 0 0 0 0 0 0 0 0 0 0 0 0 0 0 0 0 0 0 0 0 0 0 0 0 0 0 0 0 0 0 0
86 72 90 169 112 6 0 0 0 0 0 3 23 8 0 0 0 0 0 0 0 0 0 0 0 0 0 0 0 0 0 0 0 0 0 0 0 0 0 0 0 1 1
96 89 247 232 2 0 0 0 3 16 63 23 7 2 0 0 0 0 0 0 0 0 0 0 0 0 0 0 0 0 0 0 0 0 0 0 0 2 0 0 0 0 1
110 75 179 53 18 36 17 14 11 21 0 0 0 0 0 0 0 0 0 0 0 0 0 0 0 0 0 0 0 0 0 0 0 0 0 0 0 0 2 0 0 0 0
23 23 39 79 14 9 1 0 0 0 0 0 0 0 0 0 0 0 0 0 0 0 0 0 0 0 0 0 0 0 0 0 0 0 0 0 0 0 0 0 0 0 0
4 13 51 10 0 0 0 0 0 0 0 0 0 0 0 0 0 0 0 0 0 0 0 0 0 0 0 0 0 0 0 0 0 0 0 0 0 0 0 0 0 0 0
1 46 1 0 0 0 0 0 0 0 0 0 0 0 0 0 0 0 0 0 0 0 0 0 0 0 0 0 0 0 0 0 0 0 0 0 0 0 0 0 0 0 0
0 0 0 0 0 0 0 0 0 0 0 0 0 0 0 0 0 0 0 0 0 0 0 0 0 0 0 0 0 0 0 0 0 0 0 0 0 0 0 0 0 0 0
0 0 0 0 0 0 0 0 0 0 0 0 0 0 0 0 0 0 0 0 0 0 0 0 0 0 0 0 0 0 0 0 0 0 0 0 0 0 0 0 0 0 0
4 0 0 0 0 0 0 0 0 0 0 0 0 0 0 0 0 0 0 0 0 0 0 0 0 0 0 0 0 0 0 0 0 0 0 0 0 0 0 0 0 0 0
26 26 24 0 0 0 0 0 0 0 0 0 0 0 0 0 0 0 0 0 0 0 0 0 0 0 0 0 0 0 0 0 0 0 0 0 0 0 0 0 0 0 0
34 19 0 0 0 0 0 0 0 0 0 0 0 0 0 0 0 0 0 0 0 0 0 0 0 0 0 0 0 0 0 0 0 0 0 0 0 0 0 0 0 0 0
6 0 0 0 0 0 0 0 0 0 0 0 0 0 0 0 0 0 0 0 0 0 0 0 0 0 0 0 0 0 0 0 0 0 0 0 0 0 0 0 0 0 0